This is the latest recevied weather packets stored in our database for station/object SQ9RHX-13. If no packets are shown the sender has not sent any weather packets the latest 10 day(s).
| Time | Temp. | Humidity | Pressure | Rain* | Wind** | Luminosity | Snow |
|---|---|---|---|---|---|---|---|
| 1777983304 | 27.22° C | 31% | 1010.3 hPa | 0 mm | - | 572 W/m² | - |
| 1777983006 | 27.22° C | 31% | 1010.4 hPa | 0 mm | - | 592 W/m² | - |
| 1777982703 | 27.78° C | 33% | 1010.5 hPa | 0 mm | - | 599 W/m² | - |
| 1777982403 | 27.22° C | 33% | 1010.4 hPa | 0 mm | - | 614 W/m² | - |
| 1777982104 | 27.78° C | 32% | 1010.5 hPa | 0 mm | - | 610 W/m² | - |
| 1777981803 | 27.78° C | 32% | 1010.6 hPa | 0 mm | - | 630 W/m² | - |
| 1777981505 | 27.78° C | 31% | 1010.6 hPa | 0 mm | - | 618 W/m² | - |
| 1777981204 | 27.22° C | 33% | 1010.6 hPa | 0 mm | - | 645 W/m² | - |
| 1777980902 | 27.78° C | 31% | 1010.6 hPa | 0 mm | - | 676 W/m² | - |
| 1777980604 | 27.78° C | 30% | 1010.6 hPa | 0 mm | - | 665 W/m² | - |
| 1777980303 | 27.78° C | 32% | 1010.8 hPa | 0 mm | - | 656 W/m² | - |
| 1777980002 | 27.22° C | 35% | 1010.7 hPa | 0 mm | - | 675 W/m² | - |
| 1777979703 | 27.22° C | 32% | 1010.8 hPa | 0 mm | - | 662 W/m² | - |
| 1777979404 | 26.67° C | 33% | 1010.9 hPa | 0 mm | - | 688 W/m² | - |
| 1777979102 | 26.67° C | 35% | 1010.9 hPa | 0 mm | - | 661 W/m² | - |
| 1777978803 | 26.67° C | 35% | 1010.8 hPa | 0 mm | - | 676 W/m² | - |
| 1777978502 | 26.67° C | 36% | 1010.9 hPa | 0 mm | - | 671 W/m² | - |
| 1777978203 | 26.11° C | 34% | 1011 hPa | 0 mm | - | 693 W/m² | - |
| 1777977904 | 25.56° C | 36% | 1011.2 hPa | 0 mm | - | 687 W/m² | - |
| 1777977604 | 25.56° C | 37% | 1011.2 hPa | 0 mm | - | 632 W/m² | - |
| 1777977304 | 25° C | 38% | 1011.2 hPa | 0 mm | - | 490 W/m² | - |
| 1777977003 | 25.56° C | 38% | 1011.1 hPa | 0 mm | - | 553 W/m² | - |
| 1777976705 | 25.56° C | 38% | 1011.1 hPa | 0 mm | - | 484 W/m² | - |
| 1777976403 | 25.56° C | 39% | 1011.3 hPa | 0 mm | - | 648 W/m² | - |
| 1777976104 | 25.56° C | 39% | 1011.3 hPa | 0 mm | - | 692 W/m² | - |
* Rain latest hour (hover to see other rain measurements)
** Current wind speed in m/s (hover to see current wind gust speed)